Location: Mason Neck State Park
(38.6428°N, 77.1981°W)
Time: 01:31:35
(UTC-05:00)

ISS - Visible Passes

Search period start: 19 December 2014 00:00
Search period end: 29 December 2014 00:00
Orbit: 404 x 415 km, 51.6° (Epoch: 18 December)

Date Brightness Start Highest point End Pass type
(mag) Time Alt. Az. Time Alt. Az. Time Alt. Az.
21 Dec -1.1 17:56:13 10° N 17:57:38 12° NNE 17:57:53 12° NNE visible
22 Dec -1.1 18:41:01 10° NNW 18:42:06 17° NNW 18:42:06 17° NNW visible
23 Dec -1.7 17:50:23 10° NNW 17:52:49 19° NNE 17:53:39 17° NE visible
23 Dec 0.0 19:26:24 10° WNW 19:26:26 10° WNW 19:26:26 10° WNW visible
24 Dec -2.9 18:35:25 10° NW 18:38:08 52° NNW 18:38:08 52° NNW visible
25 Dec -2.6 17:44:32 10° NW 17:47:36 36° NNE 17:50:03 14° E visible
25 Dec -0.5 19:21:23 10° WNW 19:22:51 18° WSW 19:22:51 18° WSW visible
26 Dec -2.2 18:29:55 10° WNW 18:33:03 43° SW 18:35:08 18° SSE visible
27 Dec -3.3 17:38:41 10° NW 17:41:58 90° SSW 17:45:14 10° SE visible
28 Dec -0.2 18:24:54 10° W 18:27:01 16° SW 18:29:08 10° S visible
